• In Deutschland
  • Länderverzeichnis
  • Für 7 Tage
  • Wassertemperatur
  • Satellitenkarten
  • Wetterkarte
  • Widgets
  • user-avatar
    Anmelden

    Stündliche Wetter Janina

    Heute, 25 Mai, Freitag

    Zeit Temperatur Niederschläge Wind Luftdruck Luftfeuchtigkeit
    00:00 +13°C° 0 mm 1 m/S 685 mmHg 89%
    01:00 +13°C° 0 mm 1 m/S 685 mmHg 88%
    02:00 +13°C° 0 mm 1 m/S 685 mmHg 88%
    03:00 +13°C° 0 mm 1 m/S 685 mmHg 88%
    04:00 +12°C° 0 mm 1 m/S 685 mmHg 88%
    05:00 +14°C° 0 mm 1 m/S 685 mmHg 84%
    06:00 +16°C° 0 mm 1 m/S 685 mmHg 79%
    07:00 +19°C° 0 mm 1 m/S 686 mmHg 75%
    08:00 +20°C° 0 mm 1 m/S 686 mmHg 67%
    09:00 +22°C° 0 mm 1 m/S 687 mmHg 60%
    10:00 +24°C° 0 mm 1 m/S 687 mmHg 53%
    11:00 +24°C° 0,3 mm 1 m/S 687 mmHg 55%
    12:00 +24°C° 0,3 mm 2 m/S 687 mmHg 56%
    13:00 +24°C° 0,3 mm 2 m/S 686 mmHg 58%
    14:00 +23°C° 1,1 mm 2 m/S 686 mmHg 61%
    15:00 +23°C° 1,1 mm 1 m/S 686 mmHg 63%
    16:00 +22°C° 1,1 mm 1 m/S 686 mmHg 65%
    17:00 +21°C° 0,5 mm 1 m/S 686 mmHg 70%
    18:00 +19°C° 0,5 mm 1 m/S 686 mmHg 75%
    19:00 +18°C° 0,5 mm 1 m/S 686 mmHg 80%
    20:00 +16°C° 0,1 mm 1 m/S 686 mmHg 81%
    21:00 +16°C° 0,1 mm 1 m/S 686 mmHg 82%
    22:00 +15°C° 0,1 mm 1 m/S 687 mmHg 82%
    23:00 +15°C° 0 mm 1 m/S 687 mmHg 82%

    Morgen, 26 Mai, Samstag

    Zeit Temperatur Niederschläge Wind Luftdruck Luftfeuchtigkeit
    00:00 +14°C° 0 mm 1 m/S 687 mmHg 82%
    01:00 +14°C° 0 mm 1 m/S 687 mmHg 82%
    02:00 +14°C° 0 mm 1 m/S 687 mmHg 81%
    03:00 +14°C° 0 mm 1 m/S 687 mmHg 81%
    04:00 +13°C° 0 mm 1 m/S 687 mmHg 80%
    05:00 +15°C° 0 mm 1 m/S 687 mmHg 76%
    06:00 +18°C° 0 mm 1 m/S 688 mmHg 73%
    07:00 +20°C° 0 mm 1 m/S 688 mmHg 69%
    08:00 +21°C° 0 mm 1 m/S 689 mmHg 62%
    09:00 +23°C° 0 mm 1 m/S 689 mmHg 56%
    10:00 +25°C° 0 mm 1 m/S 690 mmHg 49%
    11:00 +25°C° 0,1 mm 1 m/S 689 mmHg 50%
    12:00 +25°C° 0,1 mm 1 m/S 689 mmHg 51%
    13:00 +25°C° 0,1 mm 2 m/S 689 mmHg 51%
    14:00 +25°C° 0,2 mm 2 m/S 689 mmHg 53%
    15:00 +25°C° 0,2 mm 2 m/S 689 mmHg 55%
    16:00 +24°C° 0,2 mm 2 m/S 688 mmHg 57%
    17:00 +22°C° 0,3 mm 1 m/S 688 mmHg 63%
    18:00 +21°C° 0,3 mm 1 m/S 688 mmHg 69%
    19:00 +19°C° 0,3 mm 1 m/S 688 mmHg 76%
    20:00 +18°C° 0 mm 1 m/S 688 mmHg 76%
    21:00 +18°C° 0 mm 1 m/S 688 mmHg 77%
    22:00 +16°C° 0 mm 1 m/S 688 mmHg 77%
    23:00 +16°C° 0 mm 1 m/S 688 mmHg 77%

    übermorgen, 27 Mai, Sonntag

    Zeit Temperatur Niederschläge Wind Luftdruck Luftfeuchtigkeit
    00:00 +16°C° 0 mm 1 m/S 688 mmHg 77%
    01:00 +15°C° 0 mm 1 m/S 688 mmHg 77%
    02:00 +15°C° 0 mm 1 m/S 688 mmHg 77%
    03:00 +15°C° 0 mm 1 m/S 688 mmHg 78%
    04:00 +14°C° 0 mm 1 m/S 688 mmHg 78%
    05:00 +16°C° 0 mm 1 m/S 688 mmHg 75%
    06:00 +19°C° 0 mm 1 m/S 689 mmHg 72%
    07:00 +21°C° 0 mm 1 m/S 689 mmHg 69%
    08:00 +22°C° 0 mm 1 m/S 689 mmHg 63%
    09:00 +24°C° 0 mm 1 m/S 690 mmHg 57%
    10:00 +25°C° 0 mm 1 m/S 690 mmHg 51%
    11:00 +26°C° 0 mm 1 m/S 690 mmHg 51%
    12:00 +26°C° 0 mm 2 m/S 690 mmHg 50%
    13:00 +26°C° 0 mm 2 m/S 690 mmHg 49%
    14:00 +26°C° 0,6 mm 2 m/S 690 mmHg 54%
    15:00 +25°C° 0,6 mm 1 m/S 689 mmHg 58%
    16:00 +24°C° 0,6 mm 1 m/S 689 mmHg 62%
    17:00 +23°C° 0,5 mm 1 m/S 689 mmHg 69%
    18:00 +21°C° 0,5 mm 1 m/S 689 mmHg 75%
    19:00 +19°C° 0,5 mm 1 m/S 689 mmHg 81%
    20:00 +19°C° 0,1 mm 1 m/S 689 mmHg 82%
    21:00 +18°C° 0,1 mm 1 m/S 689 mmHg 84%
    22:00 +16°C° 0,1 mm 1 m/S 689 mmHg 85%
    23:00 +16°C° 0 mm 1 m/S 689 mmHg 86%

    28 Mai, Montag

    Zeit Temperatur Niederschläge Wind Luftdruck Luftfeuchtigkeit
    00:00 +16°C° 0 mm 1 m/S 688 mmHg 87%
    01:00 +15°C° 0 mm 1 m/S 688 mmHg 87%
    02:00 +15°C° 0 mm 1 m/S 688 mmHg 88%
    03:00 +15°C° 0 mm 1 m/S 688 mmHg 88%
    04:00 +14°C° 0 mm 1 m/S 688 mmHg 88%
    05:00 +16°C° 0 mm 1 m/S 689 mmHg 84%
    06:00 +19°C° 0 mm 1 m/S 689 mmHg 79%
    07:00 +20°C° 0 mm 1 m/S 689 mmHg 74%
    08:00 +22°C° 0,1 mm 1 m/S 690 mmHg 69%
    09:00 +23°C° 0,1 mm 1 m/S 690 mmHg 64%
    10:00 +25°C° 0,1 mm 1 m/S 690 mmHg 59%
    11:00 +25°C° 0,9 mm 1 m/S 690 mmHg 61%
    12:00 +25°C° 0,9 mm 1 m/S 690 mmHg 62%
    13:00 +25°C° 0,9 mm 2 m/S 689 mmHg 64%
    14:00 +24°C° 1,5 mm 1 m/S 689 mmHg 66%
    15:00 +23°C° 1,5 mm 1 m/S 689 mmHg 69%
    16:00 +23°C° 1,5 mm 1 m/S 689 mmHg 72%
    17:00 +22°C° 0,4 mm 1 m/S 688 mmHg 76%
    18:00 +20°C° 0,4 mm 1 m/S 688 mmHg 80%
    19:00 +19°C° 0,4 mm 1 m/S 688 mmHg 85%
    20:00 +18°C° 0,4 mm 1 m/S 688 mmHg 86%
    21:00 +18°C° 0,4 mm 1 m/S 688 mmHg 87%
    22:00 +16°C° 0,4 mm 1 m/S 688 mmHg 89%
    23:00 +16°C° 0 mm 1 m/S 688 mmHg 89%

    29 Mai, Dienstag

    Zeit Temperatur Niederschläge Wind Luftdruck Luftfeuchtigkeit
    00:00 +15°C° 0 mm 1 m/S 688 mmHg 90%
    01:00 +15°C° 0 mm 1 m/S 688 mmHg 91%
    02:00 +15°C° 0 mm 1 m/S 687 mmHg 91%
    03:00 +14°C° 0 mm 1 m/S 687 mmHg 91%
    04:00 +14°C° 0 mm 1 m/S 687 mmHg 91%
    05:00 +15°C° 0 mm 1 m/S 688 mmHg 86%
    06:00 +18°C° 0 mm 1 m/S 688 mmHg 81%
    07:00 +20°C° 0 mm 1 m/S 688 mmHg 76%
    08:00 +21°C° 0,2 mm 1 m/S 689 mmHg 70%
    09:00 +23°C° 0,2 mm 1 m/S 689 mmHg 65%
    10:00 +24°C° 0,2 mm 1 m/S 689 mmHg 60%
    11:00 +25°C° 0,6 mm 1 m/S 689 mmHg 60%
    12:00 +25°C° 0,6 mm 1 m/S 689 mmHg 60%
    13:00 +25°C° 0,6 mm 1 m/S 688 mmHg 59%
    14:00 +24°C° 1,1 mm 1 m/S 688 mmHg 62%
    15:00 +24°C° 1,1 mm 1 m/S 688 mmHg 65%
    16:00 +23°C° 1,1 mm 1 m/S 688 mmHg 68%
    17:00 +22°C° 0,5 mm 1 m/S 687 mmHg 73%
    18:00 +20°C° 0,5 mm 1 m/S 687 mmHg 78%
    19:00 +19°C° 0,5 mm 1 m/S 687 mmHg 84%
    20:00 +18°C° 0,1 mm 1 m/S 687 mmHg 85%
    21:00 +16°C° 0,1 mm 1 m/S 687 mmHg 86%
    22:00 +16°C° 0,1 mm 1 m/S 687 mmHg 87%
    23:00 +15°C° 0 mm 1 m/S 687 mmHg 87%

    30 Mai, Mittwoch

    Zeit Temperatur Niederschläge Wind Luftdruck Luftfeuchtigkeit
    00:00 +15°C° 0 mm 1 m/S 686 mmHg 88%
    01:00 +15°C° 0 mm 1 m/S 686 mmHg 88%
    02:00 +14°C° 0 mm 1 m/S 686 mmHg 87%
    03:00 +14°C° 0 mm 1 m/S 686 mmHg 86%
    04:00 +14°C° 0 mm 1 m/S 686 mmHg 86%
    05:00 +15°C° 0 mm 1 m/S 686 mmHg 80%
    06:00 +18°C° 0 mm 1 m/S 687 mmHg 74%
    07:00 +20°C° 0 mm 1 m/S 687 mmHg 68%
    08:00 +22°C° 0 mm 1 m/S 688 mmHg 63%
    09:00 +24°C° 0 mm 1 m/S 688 mmHg 57%
    10:00 +25°C° 0 mm 1 m/S 688 mmHg 51%
    11:00 +25°C° 0,3 mm 1 m/S 688 mmHg 53%
    12:00 +25°C° 0,3 mm 1 m/S 688 mmHg 56%
    13:00 +25°C° 0,3 mm 2 m/S 687 mmHg 58%
    14:00 +24°C° 0,8 mm 1 m/S 687 mmHg 60%
    15:00 +24°C° 0,8 mm 1 m/S 687 mmHg 63%
    16:00 +24°C° 0,8 mm 1 m/S 687 mmHg 65%
    17:00 +22°C° 0,6 mm 1 m/S 687 mmHg 71%
    18:00 +20°C° 0,6 mm 1 m/S 686 mmHg 76%
    19:00 +19°C° 0,6 mm 1 m/S 686 mmHg 82%
    20:00 +18°C° 0,1 mm 1 m/S 686 mmHg 84%
    21:00 +18°C° 0,1 mm 1 m/S 686 mmHg 86%
    22:00 +16°C° 0,1 mm 1 m/S 687 mmHg 88%
    23:00 +16°C° 0 mm 1 m/S 686 mmHg 89%
    Mehr zeigen